sat.trackr.live / text

‹ back to catalog

STARLINK-5654

NORAD 55366 · 2023-013AM

PAYLOAD ACTIVE UNKNOWN

§ Identity

Operator
Country
US
Launch date
2023-01-26
Launch site
AFETR
Launch vehicle
Mass (kg)
RCS (m²)

Purposes: comms

External: N2YO · Heavens-Above · Gunter

§ Orbital elements

Epoch: 2026-05-24T21:56:18.423168Z

Period
94.27 min
Inclination
42.9982°
Eccentricity
0.0001069
Mean motion
15.27574491 rev/d
Perigee alt
482.3 km
Apogee alt
483.8 km
Semi-major
6,861.2 km
B*
-7.4017e-6
RAAN
217.9955°
Arg perigee
281.2709°
Mean anomaly
78.8023°
Rev number
18,350

§ Raw data

STARLINK-56541 55366U 23013AM  26144.91410212 -.00000466  00000+0 -74017-5 0  99922 55366  42.9982 217.9955 0001069 281.2709  78.8023 15.27574491183504

JSON: /api/v1/satellites/55366 · /tle

For live sub-satellite position, see the globe view (requires WebGL).

§ Visibility from observer

Set your observer location to see the next 7 days of passes ≥ 10°. The values pass through the URL so the page stays shareable.

No JS? Fill the form by hand. The geolocation button needs JavaScript.